FW3096 Weather Reports


time (UTC)temp
C
wind
direction
speed
KPH
gust
KPH
rain 1hr
cm
rain 24hr
cm
rain mn
cm
humidity
%
barometer
mb
20260903033505 22 177 0.0 0.0 0.00 0.28 0.28 98 1019.3
20260903032505 22 177 0.0 4.8 0.00 0.28 0.28 98 1019.1
20260903032007 22 177 1.6 3.2 0.00 0.28 0.28 98 1019.2
20260903031008 22 177 1.6 3.2 0.00 0.28 0.28 98 1019.2
20260903030009 22 177 3.2 9.7 0.00 0.28 0.28 98 1019.1
20260903025505 22 189 0.0 4.8 0.00 0.30 0.28 98 1019.4
20260903025007 22 180 0.0 6.4 0.00 0.30 0.28 98 1019.4
20260903024507 22 180 1.6 6.4 0.00 0.30 0.28 98 1019.3
20260903023505 22 173 0.0 3.2 0.00 0.30 0.28 98 1019.5
20260903023007 22 173 0.0 3.2 0.00 0.30 0.28 98 1019.3
20260903022505 22 173 0.0 8.0 0.00 0.30 0.28 98 1019.5
20260903022006 22 186 1.6 11.3 0.00 0.30 0.28 98 1019.4
20260903021506 22 171 0.0 11.3 0.00 0.30 0.28 98 1019.2
20260903020506 22 177 1.6 8.0 0.00 0.30 0.28 98 1018.9
20260903020008 22 174 0.0 8.0 0.00 0.30 0.28 98 1018.9
20260903015006 22 162 1.6 4.8 0.00 0.30 0.28 98 1018.8
20260903014507 22 166 0.0 4.8 0.00 0.30 0.28 98 1019.0
20260903014005 22 166 0.0 4.8 0.00 0.30 0.28 98 1019.1
20260903013505 22 166 1.6 4.8 0.00 0.30 0.28 98 1019.1
20260903013009 22 198 1.6 3.2 0.00 0.30 0.28 98 1019.0
20260903012505 22 198 0.0 3.2 0.00 0.30 0.28 98 1019.1
20260903011507 22 198 0.0 1.6 0.00 0.30 0.28 98 1019.1
20260903011005 22 198 0.0 1.6 0.00 0.30 0.28 98 1019.3
20260903010505 22 198 0.0 0.0 0.00 0.30 0.28 98 1019.3
20260903010012 22 198 0.0 0.0 0.00 0.30 0.28 98 1019.5
20260903005009 22 198 0.0 1.6 0.00 1.32 0.28 98 1019.3
20260903004505 22 198 0.0 0.0 0.00 1.32 0.28 98 1019.2
20260903004006 22 198 0.0 3.2 0.00 1.32 0.28 98 1019.3
20260903003508 22 198 0.0 3.2 0.00 1.32 0.28 98 1019.1
20260903003011 22 198 0.0 6.4 0.00 1.32 0.28 98 1019.1
20260903002505 22 198 1.6 6.4 0.00 1.32 0.28 98 1019.1
20260903002007 22 199 0.0 3.2 0.00 1.32 0.28 98 1019.1
20260903001505 22 199 0.0 3.2 0.00 1.32 0.28 98 1019.1
20260903001007 22 199 0.0 1.6 0.00 1.32 0.28 98 1019.1
20260903000505 22 199 0.0 1.6 0.00 1.32 0.28 98 1019.0
20260902235005 22 199 0.0 0.0 0.00 1.32 0.28 98 1018.8
20260902234506 22 199 0.0 0.0 0.00 1.32 0.28 98 1018.8
20260902234005 22 199 0.0 0.0 0.00 1.32 0.28 98 1018.8
20260902233504 22 199 0.0 0.0 0.00 1.32 0.28 98 1018.9
20260902233006 22 199 0.0 0.0 0.00 1.32 0.28 98 1018.9
20260902232504 22 199 0.0 1.6 0.00 1.32 0.28 98 1018.9
20260902231505 22 199 0.0 1.6 0.00 1.32 0.28 98 1019.0
20260902231005 22 199 0.0 1.6 0.00 1.32 0.28 98 1019.1
20260902230504 22 199 0.0 0.0 0.00 1.32 0.28 98 1019.0
20260902230007 22 199 0.0 0.0 0.00 1.32 0.28 98 1018.9
20260902225504 22 199 0.0 3.2 0.00 1.32 0.28 98 1018.9
20260902225006 22 199 0.0 3.2 0.00 1.32 0.28 98 1018.9
20260902224506 22 199 0.0 3.2 0.00 1.32 0.28 98 1019.0
20260902224005 22 235 0.0 1.6 0.00 1.32 0.28 98 1019.1
20260902223504 22 235 0.0 1.6 0.00 1.32 0.28 98 1019.2
20260902223012 22 235 0.0 1.6 0.00 1.32 0.28 98 1019.3
20260902222504 22 235 0.0 0.0 0.00 1.32 0.28 98 1019.4
20260902222005 22 235 0.0 1.6 0.00 1.32 0.28 98 1019.5
20260902221506 22 235 0.0 1.6 0.00 1.32 0.28 98 1019.6
20260902221005 22 242 0.0 1.6 0.00 1.32 0.28 98 1019.6
20260902220504 22 242 0.0 0.0 0.00 1.32 0.28 98 1019.5
20260902220009 22 242 0.0 3.2 0.00 1.32 0.28 98 1019.5
20260902215504 22 242 0.0 3.2 0.00 1.32 0.28 98 1019.6
20260902214505 22 211 0.0 3.2 0.00 1.32 0.28 98 1019.5
20260902213505 22 215 3.2 9.7 0.00 1.32 0.28 98 1019.2
20260902212505 22 172 0.0 3.2 0.00 1.32 0.28 98 1019.2
20260902212006 22 170 0.0 6.4 0.00 1.32 0.28 98 1019.1
20260902211007 23 162 1.6 6.4 0.00 1.32 0.28 98 1019.0
20260902210505 23 186 3.2 6.4 0.00 1.32 0.28 98 1019.0
20260902210007 23 185 0.0 3.2 0.00 1.32 0.28 98 1019.2
20260902205506 23 186 1.6 3.2 0.00 1.32 0.28 98 1019.3
20260902205006 22 186 1.6 3.2 0.00 1.32 0.28 98 1019.2
20260902204505 22 184 0.0 3.2 0.00 1.32 0.28 97 1019.4
20260902204008 22 185 0.0 3.2 0.00 1.32 0.28 98 1019.4
20260902203504 22 184 0.0 4.8 0.00 1.32 0.28 97 1019.3
20260902203006 23 185 0.0 1.6 0.00 1.32 0.28 98 1019.4
20260902202504 23 185 0.0 0.0 0.00 1.32 0.28 98 1019.3
20260902202007 23 185 0.0 1.6 0.00 1.32 0.28 97 1019.2
20260902201504 23 185 0.0 3.2 0.00 1.32 0.28 97 1019.2
20260902201007 23 185 0.0 6.4 0.00 1.32 0.28 97 1019.2
20260902200504 23 185 1.6 6.4 0.00 1.32 0.28 97 1019.1
20260902195505 23 173 1.6 4.8 0.00 1.32 0.28 97 1019.2
20260902195005 23 192 1.6 4.8 0.00 1.32 0.28 97 1019.2
20260902194504 23 184 0.0 4.8 0.00 1.32 0.28 97 1019.4
20260902194006 23 213 1.6 4.8 0.00 1.32 0.28 97 1019.4
20260902193506 23 202 0.0 4.8 0.00 1.32 0.28 97 1019.3
20260902193005 23 238 0.0 0.0 0.03 1.32 0.28 97 1019.2
20260902192506 23 238 0.0 0.0 0.03 1.32 0.28 97 1019.3
20260902192005 22 238 0.0 3.2 0.03 1.32 0.28 97 1019.3
20260902191504 22 238 1.6 3.2 0.05 1.32 0.28 97 1019.4
20260902191007 22 239 0.0 3.2 0.05 1.32 0.28 96 1019.6
20260902190505 22 239 0.0 0.0 0.08 1.32 0.28 96 1019.7
20260902190005 22 239 0.0 0.0 0.08 1.32 0.28 96 1019.7
20260902185505 22 239 0.0 0.0 0.13 1.32 0.28 96 1019.7
20260902185005 22 239 0.0 0.0 0.15 1.32 0.28 96 1019.8
20260902184504 22 239 0.0 0.0 0.18 1.32 0.28 96 1019.8
20260902184005 22 239 0.0 0.0 0.20 1.32 0.28 96 1019.8
20260902183504 22 239 0.0 0.0 0.25 1.32 0.28 96 1019.9
20260902183005 22 239 0.0 0.0 0.25 1.30 0.25 96 1020.1
20260902182504 22 239 0.0 0.0 0.25 1.30 0.25 96 1020.3
20260902182006 22 239 0.0 0.0 0.25 1.30 0.25 96 1020.3
20260902181504 22 239 0.0 0.0 0.23 1.27 0.23 95 1020.1
20260902181004 22 239 0.0 1.6 0.23 1.27 0.23 96 1020.0
20260902180505 22 239 0.0 1.6 0.20 1.24 0.20 96 1020.1
20260902180007 22 239 0.0 0.0 0.20 1.24 0.20 96 1020.4
20260902175007 22 239 0.0 0.0 0.13 1.17 0.13 95 1020.3
20260902174507 22 239 0.0 0.0 0.10 1.14 0.10 95 1020.7
20260902173510 22 239 0.0 0.0 0.03 1.07 0.03 95 1021.1
20260902172504 22 238 0.0 0.0 0.00 1.04 0.00 95 1021.3
20260902172006 22 238 0.0 0.0 0.00 1.04 0.00 95 1021.3
20260902171504 22 238 0.0 0.0 0.00 1.04 0.00 95 1021.1
20260902171004 23 238 0.0 3.2 0.00 1.04 0.00 95 1021.1
20260902170505 23 238 0.0 3.2 0.00 1.04 0.00 94 1021.2
20260902170005 23 238 0.0 3.2 0.00 1.04 0.00 94 1021.2
20260902165504 23 239 0.0 3.2 0.00 1.04 0.00 94 1021.2
20260902165006 23 239 1.6 1.6 0.00 1.04 0.00 95 1021.1
20260902163505 22 117 0.0 3.2 0.00 1.04 0.00 96 1020.9
20260902163005 22 334 0.0 3.2 0.00 1.04 0.00 96 1020.9
20260902162504 22 198 0.0 0.0 0.00 1.04 0.00 96 1021.0
20260902162006 22 212 0.0 0.0 0.00 1.04 0.00 96 1020.9
20260902160008 22 182 0.0 6.4 0.00 1.04 0.00 96 1020.9
20260902155504 22 182 1.6 6.4 0.00 1.04 0.00 96 1020.8
20260902155006 22 53 0.0 4.8 0.00 1.04 0.00 96 1020.7
20260902154006 22 220 0.0 4.8 0.00 1.04 0.00 97 1020.7
20260902153504 22 220 1.6 4.8 0.00 1.04 0.00 96 1020.7
20260902153006 22 218 0.0 1.6 0.00 1.04 0.00 97 1020.7
20260902152504 22 218 0.0 1.6 0.00 1.04 0.00 97 1020.8
20260902151504 22 218 0.0 3.2 0.00 1.04 0.00 96 1021.0
20260902150507 22 218 1.6 3.2 0.00 1.04 0.00 97 1021.0
20260902150010 22 218 0.0 3.2 0.00 1.04 0.00 97 1021.1
20260902145006 22 169 1.6 4.8 0.00 1.04 0.00 98 1021.2
20260902144504 21 169 1.6 6.4 0.00 1.04 0.00 98 1021.2
20260902144008 21 187 1.6 9.7 0.00 1.04 0.00 97 1021.1
20260902143006 21 54 0.0 6.4 0.00 1.04 0.00 98 1020.9
20260902142506 21 177 0.0 8.0 0.00 1.04 0.00 98 1020.7
20260902142006 21 182 1.6 8.0 0.00 1.04 0.00 98 1020.5
20260902141007 21 324 0.0 8.0 0.00 1.04 0.00 99 1020.7
20260902140504 21 179 1.6 8.0 0.00 1.04 0.00 99 1020.7
20260902140009 21 182 1.6 4.8 0.00 1.04 0.00 99 1020.7
20260902135504 21 236 1.6 4.8 0.00 1.04 0.00 99 1020.7
20260902135009 21 234 0.0 6.4 0.00 1.04 0.00 99 1020.8
20260902134505 21 51 0.0 6.4 0.00 1.04 0.00 98 1020.7
20260902134006 21 187 1.6 4.8 0.00 1.04 0.00 98 1020.8
20260902133007 21 92 0.0 4.8 0.00 1.04 0.00 98 1020.6
20260902132504 21 187 1.6 4.8 0.00 1.04 0.00 99 1020.4
20260902132006 21 200 1.6 4.8 0.00 1.04 0.00 99 1020.4
20260902131505 21 198 0.0 8.0 0.00 1.04 0.00 99 1020.4
20260902131007 21 174 3.2 8.0 0.00 1.04 0.00 98 1020.5
20260902130503 21 200 1.6 6.4 0.00 1.04 0.00 98 1020.5
20260902130009 21 176 3.2 6.4 0.00 1.04 0.00 98 1020.4
20260902125504 21 190 1.6 3.2 0.00 1.04 0.00 98 1020.4
20260902125005 21 176 0.0 6.4 0.00 1.04 0.00 98 1020.3
20260902124505 21 176 1.6 6.4 0.00 1.04 0.00 98 1020.3
20260902123507 21 169 1.6 8.0 0.00 1.04 0.00 98 1020.4
20260902123007 21 157 0.0 4.8 0.00 1.04 0.00 98 1020.3
20260902122504 21 156 1.6 4.8 0.00 1.04 0.00 98 1020.2
20260902122006 21 186 0.0 8.0 0.00 1.04 0.00 98 1020.0
20260902121505 21 174 1.6 8.0 0.00 1.04 0.00 98 1019.9
20260902120007 21 193 0.0 4.8 0.00 1.04 0.00 98 1019.9
20260902115503 21 222 0.0 6.4 0.00 1.04 0.00 98 1019.8
20260902114503 21 184 1.6 4.8 0.00 1.04 0.00 98 1019.7
20260902114005 21 201 0.0 3.2 0.00 1.04 0.00 98 1020.0
20260902113504 21 201 0.0 3.2 0.00 1.04 0.00 98 1020.1
20260902113005 21 201 0.0 4.8 0.00 1.04 0.00 98 1020.2
20260902112503 21 204 1.6 3.2 0.00 1.04 0.00 98 1020.1
20260902112005 21 204 0.0 1.6 0.00 1.04 0.00 98 1020.0
20260902111503 21 204 0.0 1.6 0.00 1.04 0.00 98 1020.0
20260902110504 21 204 0.0 3.2 0.00 1.04 0.00 98 1020.0
20260902110007 21 204 0.0 1.6 0.00 1.04 0.00 98 1019.8
20260902105006 21 203 0.0 1.6 0.00 1.04 0.00 98 1019.8
20260902104504 21 203 0.0 1.6 0.00 1.04 0.00 98 1019.8
20260902104004 21 203 0.0 3.2 0.00 1.04 0.00 98 1019.7
20260902103505 21 203 0.0 4.8 0.00 1.04 0.00 98 1019.8
20260902103005 21 214 1.6 3.2 0.00 1.04 0.00 98 1019.9
20260902101504 21 188 0.0 4.8 0.00 1.04 0.00 98 1019.7
20260902101004 21 188 1.6 4.8 0.00 1.04 0.00 98 1019.7
20260902100505 21 178 0.0 3.2 0.00 1.04 0.00 98 1019.7
20260902100006 21 178 1.6 3.2 0.00 1.04 0.00 98 1019.7
20260902095503 21 53 0.0 3.2 0.00 1.04 0.00 98 1019.6
20260902094503 21 227 0.0 3.2 0.00 1.04 0.00 98 1019.6
20260902093503 21 227 0.0 3.2 0.00 1.04 0.00 98 1019.5
20260902092504 21 227 0.0 3.2 0.00 1.04 0.00 98 1019.4
20260902092005 21 138 0.0 1.6 0.00 1.04 0.00 98 1019.4
20260902091506 22 49 0.0 1.6 0.00 1.04 0.00 98 1019.3
20260902091005 22 172 0.0 1.6 0.00 1.04 0.00 98 1019.2
20260902090503 22 172 0.0 1.6 0.00 1.04 0.00 98 1019.1
20260902090005 22 172 0.0 1.6 0.00 1.04 0.00 98 1019.1
20260902085504 22 172 0.0 1.6 0.00 1.04 0.00 98 1019.1
20260902085004 22 172 0.0 3.2 0.00 1.04 0.00 98 1019.1
20260902083503 22 159 0.0 3.2 0.00 1.04 0.00 98 1019.0
20260902083008 22 159 0.0 4.8 0.00 1.04 0.00 98 1018.9
20260902082505 22 159 1.6 6.4 0.00 1.04 0.00 98 1018.8
20260902082005 22 155 1.6 8.0 0.00 1.04 0.00 98 1018.8
20260902081503 22 194 1.6 6.4 0.00 1.04 0.00 98 1018.8
20260902075505 22 290 0.0 0.0 0.00 1.04 0.00 98 1018.7
20260902075005 22 291 0.0 0.0 0.00 1.04 0.00 98 1018.7
20260902074503 22 290 0.0 0.0 0.00 1.04 0.00 98 1018.8
20260902074006 22 291 0.0 0.0 0.00 1.04 0.00 98 1018.7
20260902073005 22 291 0.0 0.0 0.00 1.04 0.00 98 1018.5
20260902072503 22 291 0.0 0.0 0.00 1.04 0.00 98 1018.4
20260902072007 22 291 0.0 0.0 0.00 1.04 0.00 98 1018.3
20260902071004 22 291 0.0 0.0 0.00 1.04 0.00 98 1018.4
20260902070503 22 291 0.0 0.0 0.00 1.04 0.00 98 1018.3
20260902070008 22 291 0.0 0.0 0.00 1.04 0.00 97 1018.3
20260902065503 22 291 0.0 0.0 0.00 1.04 0.00 97 1018.2
20260902065005 22 291 0.0 0.0 0.00 1.04 0.00 97 1018.2
20260902064504 22 291 0.0 0.0 0.00 1.04 0.00 97 1018.2
20260902063004 22 291 0.0 0.0 0.00 1.04 0.00 97 1018.1
20260902062503 22 291 0.0 0.0 0.00 1.04 0.00 97 1018.0
20260902062004 22 291 0.0 0.0 0.00 1.04 0.00 97 1017.9
20260902061502 22 291 0.0 0.0 0.00 1.04 0.00 97 1018.0
20260902060503 22 291 0.0 0.0 0.00 1.04 0.00 97 1017.6
20260902060005 22 291 0.0 0.0 0.00 1.04 0.00 97 1017.7
20260902055503 22 291 0.0 0.0 0.00 1.04 0.00 97 1017.8
20260902055005 22 291 0.0 0.0 0.00 1.04 0.00 97 1017.8
20260902054502 22 290 0.0 0.0 0.00 1.04 0.00 97 1018.1
20260902054005 22 290 0.0 0.0 0.00 1.04 0.00 97 1018.2
20260902053503 22 290 0.0 0.0 0.00 1.04 0.00 97 1018.2
20260902052503 22 290 0.0 0.0 0.00 1.04 0.00 97 1018.4
20260902052004 22 290 0.0 0.0 0.00 1.04 0.00 97 1018.5
20260902051505 22 290 0.0 0.0 0.00 1.04 0.00 97 1018.5
20260902051003 22 290 0.0 0.0 0.00 1.04 0.00 97 1018.5
20260902050503 22 290 0.0 0.0 0.00 1.04 0.00 97 1018.4
20260902050008 22 290 0.0 0.0 0.00 1.04 0.00 97 1018.4
20260902045502 22 290 0.0 0.0 0.00 1.04 0.00 97 1018.5
20260902045005 22 290 0.0 0.0 0.00 1.04 0.00 97 1018.5
20260902044504 22 290 0.0 0.0 0.00 1.04 0.00 97 1018.5
20260902043502 22 290 0.0 0.0 0.00 1.04 0.00 97 1018.3
20260902043005 22 290 0.0 0.0 0.00 1.04 0.00 97 1018.2
20260902042502 22 290 0.0 0.0 0.00 1.04 0.00 97 1018.2
20260902042006 22 290 0.0 0.0 0.00 1.04 0.00 97 1018.3
20260902041506 22 290 0.0 0.0 0.00 1.04 0.00 97 1018.4
20260902041006 22 290 0.0 0.0 0.00 1.04 0.00 97 1018.3
20260902035504 22 290 0.0 0.0 0.00 1.04 1.04 97 1018.0
20260902035005 22 290 0.0 0.0 0.00 1.04 1.04 97 1018.1
20260902034507 22 290 0.0 0.0 0.00 1.04 1.04 97 1017.9
20260902034006 22 290 0.0 0.0 0.03 1.04 1.04 96 1017.8